Daniel Oduber Quiros International Airport

Jump to: basic info | weather | frequencies | runways | comments

Related pages: nearby airports | nearby navaids | notams | map

Basic information (top)

Codes: LIR MRLB
Location: lon 10.593300, lat -85.544403, elev 270 ft / 82 m msl
Status: medium_airport
Scheduled airline service: yes
Links: Wikipedia Mobile

Weather (top)

Current conditions (rec'd 2014/10/23 02:00Z):

MRLB 230200Z 09002KT 9999 FEW025 BKN140 24/23 A2988

Airport forecast (rec'd 2014/10/21 12:45Z):

TAF TAF MRLB 211100Z 2112/2212 17004KT 9999 FEW030 BKN200 TX30/2118Z TN23/2112Z 
      TEMPO 2112/2117 15008KT 
      BECMG 2117/2119 28013KT FEW020TCB SCT030 
      TEMPO 2120/2122 7000 -TSRA FEW018CB BKN030 
      BECMG 2200/2202 VRB02KT FEW030 BKN120

Frequencies (top)

Verify before use: may be inaccurate or out of date.

APP: 119.8 MHz (LIBERIA APP)
GND: 121.7 MHz (GND)
RDO: 126.8 MHz (COCO RDO)
TWR: 118.8 MHz (LIBERIA TWR)

Runways (top)

07/25: 9,022 x 148 ft (2,750 x 45 m) — paved — lighted

Latest comments (top)

Great Facility but: Make sure you either speak fluent ... [read]

Terminal building: Nice new facility opened in 2011 [read]

More... (top)

See also NOTAMs and nearby airports and navaids, or visit the Daniel Oduber Quiros International Airport page at the main OurAirports website..